DW4466 Weather Reports


Display with metric or nautical units.
time (UTC)temp
F
wind
direction
speed
MPH
gust
MPH
rain 1hr
in
rain 24hr
in
rain mn
in
humidity
%
barometer
mb
20260503011040 51 98 6.0 9.0 0.00 0.00 0.00 54 1012.2
20260503010552 51 58 2.0 9.0 0.00 0.00 0.00 54 1012.2
20260503010026 51 98 2.0 8.0 0.00 0.00 0.00 54 1012.1
20260503005555 51 71 3.0 8.0 0.00 0.00 0.00 54 1012.1
20260503005023 51 98 2.0 6.0 0.00 0.00 0.00 54 1011.9
20260503004556 51 89 3.0 7.0 0.00 0.00 0.00 53 1011.9
20260503004032 51 96 4.0 7.0 0.00 0.00 0.00 54 1011.8
20260503003545 51 86 2.0 9.0 0.00 0.00 0.00 54 1011.8
20260503003014 51 102 2.0 5.0 0.00 0.00 0.00 54 1011.6
20260503002552 51 115 2.0 5.0 0.00 0.00 0.00 53 1011.5
20260503002023 51 101 2.0 8.0 0.00 0.00 0.00 54 1011.4
20260503001606 52 98 1.0 8.0 0.00 0.00 0.00 53 1011.3
20260503001026 52 88 2.0 6.0 0.00 0.00 0.00 53 1011.2
20260503000604 52 111 2.0 6.0 0.00 0.00 0.00 52 1011.2
20260503000503 52 88 3.0 6.0 0.00 0.00 0.00 52 1011.2
20260503000036 52 77 2.0 11.0 0.00 0.00 0.00 52 1011.2
20260502235552 52 86 4.0 11.0 0.00 0.00 0.00 51 1011.2
20260502235022 52 82 3.0 8.0 0.00 0.00 0.00 51 1011.0
20260502234555 52 96 4.0 8.0 0.00 0.00 0.00 50 1011.1
20260502234024 52 102 3.0 8.0 0.00 0.00 0.00 50 1011.0
20260502233555 53 86 2.0 9.0 0.00 0.00 0.00 51 1010.9
20260502233026 53 106 4.0 11.0 0.00 0.00 0.00 51 1010.9
20260502232604 53 90 5.0 11.0 0.00 0.00 0.00 51 1010.9
20260502232036 53 123 4.0 9.0 0.00 0.00 0.00 51 1010.9
20260502231508 53 95 4.0 10.0 0.00 0.00 0.00 50 1010.9
20260502231042 53 121 3.0 9.0 0.00 0.00 0.00 50 1010.7
20260502230510 54 75 4.0 11.0 0.00 0.00 0.00 51 1010.7
20260502230029 54 161 5.0 11.0 0.00 0.00 0.00 50 1010.6
20260502225555 54 111 6.0 11.0 0.00 0.00 0.00 48 1010.6
20260502225035 54 138 4.0 12.0 0.00 0.00 0.00 51 1010.5
20260502224507 55 102 8.0 10.0 0.00 0.00 0.00 48 1010.5
20260502224037 55 101 4.0 11.0 0.00 0.00 0.00 47 1010.5
20260502223552 55 90 5.0 14.0 0.00 0.00 0.00 48 1010.5
20260502223024 55 86 7.0 14.0 0.00 0.00 0.00 45 1010.5
20260502222557 56 95 5.0 12.0 0.00 0.00 0.00 46 1010.5
20260502222034 56 167 6.0 13.0 0.00 0.00 0.00 48 1010.6
20260502221503 55 143 5.0 11.0 0.00 0.00 0.00 46 1010.5
20260502221019 55 128 8.0 11.0 0.00 0.00 0.00 47 1010.6
20260502220552 55 89 5.0 12.0 0.00 0.00 0.00 46 1010.6
20260502220026 55 133 7.0 12.0 0.00 0.00 0.00 47 1010.6
20260502215558 55 105 7.0 13.0 0.00 0.00 0.00 47 1010.6
20260502215032 55 77 8.0 13.0 0.00 0.00 0.00 47 1010.6
20260502214559 55 42 7.0 12.0 0.00 0.00 0.00 49 1010.6
20260502214501 55 150 8.0 12.0 0.00 0.00 0.00 47 1010.5
20260502214029 56 111 6.0 11.0 0.00 0.00 0.00 47 1010.6
20260502213557 56 91 4.0 10.0 0.00 0.00 0.00 52 1010.5
20260502213035 55 73 5.0 10.0 0.00 0.00 0.00 48 1010.5
20260502212511 55 36 7.0 12.0 0.00 0.00 0.00 46 1010.5
20260502212022 55 143 7.0 12.0 0.00 0.00 0.00 47 1010.4
20260502211553 55 92 7.0 12.0 0.00 0.00 0.00 47 1010.5
20260502211032 55 79 6.0 14.0 0.00 0.00 0.00 46 1010.5
20260502210503 55 34 6.0 13.0 0.00 0.00 0.00 46 1010.4
20260502210019 55 73 8.0 11.0 0.00 0.00 0.00 48 1010.4
20260502205551 55 148 4.0 12.0 0.00 0.00 0.00 45 1010.4
20260502205021 55 96 2.0 15.0 0.00 0.00 0.00 49 1010.4
20260502204557 55 128 4.0 15.0 0.00 0.00 0.00 48 1010.4
20260502204035 56 118 8.0 14.0 0.00 0.00 0.00 46 1010.4
20260502203505 56 71 10.0 14.0 0.00 0.00 0.00 46 1010.4
20260502203021 57 69 8.0 11.0 0.00 0.00 0.00 44 1010.3
20260502202553 57 117 6.0 11.0 0.00 0.00 0.00 43 1010.3
20260502202023 56 50 8.0 13.0 0.00 0.00 0.00 43 1010.4
20260502201555 56 59 9.0 13.0 0.00 0.00 0.00 49 1010.3
20260502201027 55 106 8.0 12.0 0.00 0.00 0.00 45 1010.3
20260502200541 55 63 6.0 12.0 0.00 0.00 0.00 43 1010.5
20260502200013 55 81 4.0 11.0 0.00 0.00 0.00 47 1010.5
20260502195549 55 49 5.0 11.0 0.00 0.00 0.00 49 1010.5
20260502195019 55 108 6.0 16.0 0.00 0.00 0.00 47 1010.6
20260502194534 55 82 10.0 16.0 0.00 0.00 0.00 47 1010.7
20260502194007 56 42 10.0 15.0 0.00 0.00 0.00 45 1010.7
20260502193537 56 54 8.0 13.0 0.00 0.00 0.00 48 1010.8
20260502193009 56 69 7.0 10.0 0.00 0.00 0.00 43 1010.9
20260502192523 56 22 6.0 11.0 0.00 0.00 0.00 44 1010.9
20260502192057 55 80 6.0 11.0 0.00 0.00 0.00 46 1011.1
20260502191527 55 55 3.0 12.0 0.00 0.00 0.00 48 1011.2
20260502191059 55 82 5.0 12.0 0.00 0.00 0.00 50 1011.3
20260502191002 55 82 7.0 12.0 0.00 0.00 0.00 47 1011.3
20260502190535 55 32 9.0 12.0 0.00 0.00 0.00 47 1011.3
20260502190105 55 119 7.0 10.0 0.00 0.00 0.00 47 1011.4
20260502185525 55 360 6.0 14.0 0.00 0.00 0.00 45 1011.6
20260502185057 54 42 9.0 11.0 0.00 0.00 0.00 49 1011.8
20260502184543 54 66 5.0 10.0 0.00 0.00 0.00 49 1011.8
20260502184102 54 27 6.0 12.0 0.00 0.00 0.00 47 1011.8
20260502184001 54 55 7.0 13.0 0.00 0.00 0.00 47 1011.8
20260502183531 54 65 6.0 13.0 0.00 0.00 0.00 46 1011.8
20260502183014 54 144 1.0 11.0 0.00 0.00 0.00 46 1012.0
20260502182540 54 79 8.0 12.0 0.00 0.00 0.00 46 1012.0
20260502182009 55 21 8.0 12.0 0.00 0.00 0.00 47 1012.0
20260502181546 55 70 9.0 16.0 0.00 0.00 0.00 48 1012.0
20260502181017 55 78 11.0 16.0 0.00 0.00 0.00 46 1012.1
20260502180549 55 60 9.0 13.0 0.00 0.00 0.00 47 1012.1
20260502164024 53 63 5.0 11.0 0.00 0.00 0.00 49 1012.6
20260502163557 53 78 6.0 10.0 0.00 0.00 0.00 48 1012.7
20260502163031 53 65 5.0 10.0 0.00 0.00 0.00 51 1012.7
20260502162547 53 8 8.0 12.0 0.00 0.00 0.00 50 1012.7
20260502162015 53 155 4.0 13.0 0.00 0.00 0.00 48 1012.8
20260502161554 53 121 8.0 18.0 0.00 0.00 0.00 49 1012.7
20260502161016 53 128 6.0 18.0 0.00 0.00 0.00 50 1012.9
20260502160550 53 27 8.0 12.0 0.00 0.00 0.00 52 1012.9
20260502152016 52 36 6.0 14.0 0.00 0.00 0.00 58 1013.3
20260502151546 51 86 6.0 14.0 0.00 0.00 0.00 57 1013.1
20260502151022 50 80 10.0 13.0 0.00 0.00 0.00 56 1013.3
20260502150548 50 55 8.0 15.0 0.00 0.00 0.00 57 1013.3
20260502130511 47 63 9.0 15.0 0.00 0.00 0.00 65 1013.0
20260502123520 46 40 6.0 14.0 0.00 0.00 0.00 69 1013.2
20260502123036 45 58 7.0 14.0 0.00 0.00 0.00 69 1013.3
20260502122506 45 77 6.0 13.0 0.00 0.00 0.00 68 1013.4
20260502122038 45 60 7.0 11.0 0.00 0.00 0.00 69 1013.4
20260502121515 45 50 6.0 13.0 0.00 0.00 0.00 69 1013.4
20260502121046 45 72 7.0 15.0 0.00 0.00 0.00 69 1013.3
20260502120515 45 57 5.0 10.0 0.00 0.00 0.00 69 1013.4
20260502115520 45 72 4.0 8.0 0.00 0.00 0.00 70 1013.5
20260502115053 45 103 3.0 10.0 0.00 0.00 0.00 71 1013.5
20260502114518 45 19 6.0 10.0 0.00 0.00 0.00 71 1013.5
20260502114050 45 69 6.0 10.0 0.00 0.00 0.00 70 1013.2
20260502113524 45 115 5.0 13.0 0.00 0.00 0.00 71 1013.2
20260502113006 45 63 7.0 13.0 0.00 0.00 0.00 71 1013.2
20260502112541 45 42 7.0 12.0 0.00 0.00 0.00 71 1013.2
20260502112011 45 62 6.0 10.0 0.00 0.00 0.00 71 1013.4
20260502111550 45 66 7.0 10.0 0.00 0.00 0.00 71 1013.3
20260502111017 45 38 5.0 11.0 0.00 0.00 0.00 70 1013.3
20260502110529 45 96 6.0 11.0 0.00 0.00 0.00 70 1013.2
20260502110007 45 60 2.0 8.0 0.00 0.00 0.00 71 1013.2
20260502105536 45 46 3.0 8.0 0.00 0.00 0.00 70 1013.2
20260502105010 45 75 3.0 10.0 0.00 0.00 0.00 70 1013.0
20260502104519 45 120 4.0 10.0 0.00 0.00 0.00 72 1013.0
20260502104051 45 68 3.0 5.0 0.00 0.00 0.00 72 1013.1
20260502103520 45 38 1.0 6.0 0.00 0.00 0.00 72 1012.9
20260502103051 45 112 3.0 9.0 0.00 0.00 0.00 72 1013.0
20260502102529 45 96 5.0 12.0 0.00 0.00 0.00 71 1013.0
20260502102059 45 79 7.0 14.0 0.00 0.00 0.00 71 1013.0
20260502102002 45 31 7.0 14.0 0.00 0.00 0.00 71 1013.0
20260502101541 45 86 8.0 14.0 0.00 0.00 0.00 71 1012.9
20260502101005 45 61 7.0 15.0 0.00 0.00 0.00 71 1012.9
20260502100537 46 46 7.0 15.0 0.00 0.00 0.00 71 1013.0
20260502091005 47 71 3.0 13.0 0.00 0.00 0.00 70 1012.3
20260502090539 47 105 8.0 16.0 0.00 0.00 0.00 69 1012.3
20260502071503 51 29 11.0 19.0 0.00 0.00 0.00 64 1011.5
20260502071037 51 100 12.0 19.0 0.00 0.00 0.00 64 1011.5
20260502070509 51 48 10.0 22.0 0.00 0.00 0.00 66 1011.6
20260502070045 51 90 10.0 23.0 0.00 0.00 0.00 65 1011.7
20260502065503 52 94 6.0 9.0 0.00 0.00 0.00 68 1011.7
20260502065038 52 12 3.0 7.0 0.00 0.00 0.00 69 1011.7
20260502064509 52 46 2.0 12.0 0.00 0.00 0.00 69 1011.5
20260502064039 52 59 5.0 12.0 0.00 0.00 0.00 69 1011.4
20260502063507 52 40 7.0 11.0 0.00 0.00 0.00 68 1011.5
20260502063037 52 23 7.0 10.0 0.00 0.00 0.00 68 1011.5
20260502062507 52 49 5.0 14.0 0.00 0.00 0.00 68 1011.7
20260502062043 53 54 6.0 14.0 0.00 0.00 0.00 68 1011.7
20260502061517 53 49 4.0 14.0 0.00 0.00 0.00 67 1011.5
20260502061048 53 96 7.0 14.0 0.00 0.00 0.00 67 1011.7
20260502060522 53 45 1.0 5.0 0.00 0.00 0.00 67 1011.8
20260502060053 53 61 1.0 15.0 0.00 0.00 0.00 67 1011.6
20260502055523 53 113 9.0 16.0 0.00 0.00 0.00 66 1011.6
20260502055043 53 77 3.0 16.0 0.00 0.00 0.00 67 1011.7
20260502054517 53 97 3.0 9.0 0.00 0.00 0.00 67 1011.7
20260502054051 53 96 4.0 11.0 0.00 0.00 0.00 67 1011.7
20260502053523 53 109 8.0 11.0 0.00 0.00 0.00 66 1011.6
20260502053122 53 30 7.0 11.0 0.00 0.00 0.00 66 1011.5
20260502052509 53 78 8.0 13.0 0.00 0.00 0.00 66 1011.5
20260502052041 53 42 9.0 13.0 0.00 0.00 0.00 66 1011.7
20260502051508 53 20 7.0 13.0 0.00 0.00 0.00 66 1011.8
20260502051043 53 73 2.0 9.0 0.00 0.00 0.00 66 1011.9
20260502050512 53 343 6.0 19.0 0.00 0.00 0.00 66 1011.9
20260502050036 53 20 9.0 19.0 0.00 0.00 0.00 66 1011.7
20260502045602 53 57 3.0 10.0 0.00 0.00 0.00 66 1011.5
20260502045503 54 123 5.0 10.0 0.00 0.00 0.00 66 1011.5
20260502045036 54 82 4.0 12.0 0.00 0.00 0.00 66 1011.4
20260502044505 54 98 7.0 16.0 0.00 0.00 0.00 66 1011.4
20260502044036 54 40 8.0 16.0 0.00 0.00 0.00 65 1011.5
20260502043550 54 19 6.0 17.0 0.00 0.00 0.00 65 1011.4
20260502043025 54 142 8.0 17.0 0.00 0.00 0.00 65 1011.4
20260502042554 54 56 6.0 11.0 0.00 0.00 0.00 65 1011.5
20260502042033 54 29 6.0 11.0 0.00 0.00 0.00 66 1011.4
20260502041634 54 36 5.0 11.0 0.00 0.00 0.00 66 1011.4
20260502041502 54 61 4.0 9.0 0.00 0.00 0.00 66 1011.4
20260502041017 54 72 3.0 10.0 0.00 0.00 0.00 66 1011.3
20260502040550 54 84 6.0 12.0 0.00 0.00 0.00 65 1011.2
20260502040021 54 82 5.0 13.0 0.00 0.00 0.00 65 1011.1
20260502035546 54 82 6.0 12.0 0.00 0.00 0.00 65 1011.1
20260502035016 54 65 4.0 11.0 0.00 0.00 0.00 65 1011.0
20260502034548 54 120 7.0 14.0 0.00 0.00 0.00 64 1010.9
20260502034027 54 85 7.0 14.0 0.00 0.00 0.00 65 1011.0
20260502033557 54 59 7.0 14.0 0.00 0.00 0.00 65 1011.2
20260502033027 54 85 8.0 14.0 0.00 0.00 0.00 65 1011.2
20260502032600 55 89 5.0 10.0 0.00 0.00 0.00 66 1011.0
20260502032502 55 113 4.0 11.0 0.00 0.00 0.00 65 1011.0
20260502032034 55 74 5.0 11.0 0.00 0.00 0.00 65 1010.9
20260502031508 55 69 5.0 14.0 0.00 0.00 0.00 65 1011.0
20260502031046 55 77 7.0 13.0 0.00 0.00 0.00 65 1010.7
20260502030555 55 52 5.0 16.0 0.00 0.00 0.00 66 1010.7
20260502030025 55 107 11.0 16.0 0.00 0.00 0.00 66 1010.7
20260502025556 55 68 8.0 16.0 0.00 0.00 0.00 67 1010.5
20260502025028 55 102 8.0 15.0 0.00 0.00 0.00 70 1010.6
20260502024558 55 28 7.0 13.0 0.00 0.00 0.00 71 1010.6
20260502024018 55 69 5.0 16.0 0.00 0.00 0.00 70 1010.6
20260502023552 56 59 6.0 17.0 0.00 0.00 0.00 68 1010.6
20260502023020 57 46 11.0 17.0 0.00 0.00 0.00 66 1010.7
20260502022553 57 65 7.0 16.0 0.00 0.00 0.00 63 1010.7
20260502022010 57 348 0.0 7.0 0.00 0.00 0.00 64 1010.4
20260502021544 57 348 2.0 7.0 0.00 0.00 0.00 62 1010.6
20260502021014 57 8 2.0 5.0 0.00 0.00 0.00 66 1010.6
20260502020546 57 340 0.0 4.0 0.00 0.00 0.00 65 1010.3
20260502020020 57 68 0.0 0.0 0.00 0.00 0.00 64 1010.1
20260502015550 58 333 0.0 0.0 0.00 0.00 0.00 65 1009.9
20260502015006 58 309 0.0 5.0 0.00 0.00 0.00 63 1009.9
20260502014542 58 306 0.0 5.0 0.00 0.00 0.00 59 1009.9
20260502014011 58 314 0.0 6.0 0.00 0.00 0.00 57 1009.9
20260502013549 59 194 2.0 6.0 0.00 0.00 0.00 57 1009.8
20260502013014 59 283 0.0 6.0 0.00 0.00 0.00 56 1009.7
20260502012526 59 350 0.0 4.0 0.00 0.00 0.00 52 1009.5
20260502012056 59 144 1.0 6.0 0.00 0.00 0.00 51 1009.4
20260502011535 59 349 1.0 6.0 0.00 0.00 0.00 59 1009.4